RH
79 80 78 75 92 100 100 99 99 88 84 80 84 93 88 88 72 69 74 19 24 26 22 21 23 22 21 21 16 12 16 16 34 58 60 66 53 47 40 41 44 66 57 94 98
76 80 80 75 88 100 100 100 99 91 85 82 90 97 87 86 80 74 22 22 26 28 23 26 24 19 21 18 17 18 18 17 40 43 53 50 48 44 39 56 78 56 69 90 92
76 79 81 78 78 100 100 99 99 92 87 88 92 95 81 78 77 35 17 16 27 26 22 22 20 16 19 18 17 16 16 28 40 35 41 42 50 50 43 56 56 61 67 86 77
76 76 81 81 78 96 100 99 99 98 82 91 97 85 64 80 35 23 12 17 26 24 26 22 21 18 17 17 14 15 12 11 34 34 46 44 51 48 46 49 61 59 66 72 73
76 74 78 82 78 90 99 99 100 98 88 86 89 79 63 72 53 23 10 18 23 19 25 24 25 20 16 14 15 13 12 12 27 28 37 36 44 37 52 51 46 59 61 68 63
78 76 74 79 75 83 88 91 94 89 89 90 89 72 88 61 25 22 10 13 13 24 22 20 16 12 14 15 16 11 12 9 10 20 26 28 34 32 34 52 55 59 61 57 57
80 76 74 75 72 75 75 66 83 89 93 93 87 85 69 51 22 25 19 11 16 14 20 17 14 20 20 21 19 13 12 10 16 27 27 22 36 39 35 44 49 52 58 53 45
84 78 74 73 70 78 70 65 85 84 83 84 82 91 77 19 20 19 21 18 16 17 16 15 15 19 19 20 22 14 14 17 17 18 26 24 37 41 38 39 40 40 38 44 38
87 80 77 74 70 78 66 70 85 76 72 70 84 87 64 28 21 15 17 21 18 18 16 16 15 20 23 27 31 18 25 26 19 15 18 23 33 36 33 34 37 36 36 36 37
95 80 77 73 72 70 64 72 80 71 73 78 76 69 50 25 18 15 13 14 14 18 19 19 20 27 28 31 34 22 28 25 24 16 16 13 24 36 36 40 50 44 49 38 37
99 83 77 73 72 76 74 74 82 86 76 61 41 39 18 16 13 13 12 13 15 20 28 24 28 33 25 22 19 18 16 23 20 16 13 16 23 35 44 53 38 60 70 62 38
99 88 78 74 79 91 92 84 49 47 68 51 41 30 22 20 18 15 11 16 22 29 23 24 29 21 17 19 21 22 24 22 14 9 9 18 22 23 51 49 42 66 67 68 48
98 90 80 77 80 94 84 65 28 46 70 44 38 31 18 18 21 18 13 14 18 24 19 28 22 23 19 21 21 21 25 21 18 12 14 21 28 30 26 34 47 53 62 44 41
99 93 82 76 84 76 83 49 28 47 85 41 35 16 14 17 22 13 11 14 15 19 28 28 21 24 24 23 19 28 21 25 19 24 28 20 47 46 27 27 27 32 38 38 39
100 96 84 63 87 79 64 64 44 56 91 27 21 14 16 21 16 15 10 12 16 20 20 26 28 30 29 22 18 22 19 22 23 25 36 28 40 48 35 30 31 29 32 37 44
98 99 88 97 94 58 55 66 69 80 90 30 21 22 22 20 17 13 13 12 13 17 17 23 19 23 24 17 18 18 20 22 27 32 57 37 39 53 48 34 32 34 27 36 46
94 100 90 79 76 74 61 77 96 97 28 24 23 21 22 21 19 17 18 20 23 26 32 23 20 26 25 21 20 23 31 48 46 69 65 39 44 37 41 30 32 35 31 36 49
92 100 93 76 58 76 81 98 98 46 38 16 21 22 24 20 20 19 22 25 20 20 30 35 43 26 18 17 26 24 29 59 54 85 63 47 44 34 22 29 31 31 34 40 53
91 100 99 83 59 82 96 98 74 48 24 25 18 24 23 19 17 21 21 22 16 19 29 41 37 34 27 24 22 21 32 30 67 69 83 51 31 22 32 36 45 45 46 51 56
100 99 95 87 63 93 97 80 63 35 28 21 29 21 27 23 21 22 24 18 17 15 37 56 52 46 35 31 20 21 21 38 54 69 55 31 30 35 30 31 44 54 48 55 58
98 98 72 81 83 95 89 72 56 38 31 28 25 22 21 24 25 23 23 18 17 26 41 53 53 56 43 35 27 27 27 23 31 56 61 74 46 18 22 23 41 46 46 49 50
94 93 69 88 96 83 87 65 50 39 35 35 20 21 22 23 24 25 27 36 30 22 34 47 57 76 50 25 20 20 24 35 63 36 72 76 53 20 18 17 20 29 39 44 44
96 82 90 58 75 89 56 55 52 46 42 30 27 23 22 27 42 23 35 32 32 28 27 32 34 60 42 35 31 23 21 20 40 62 51 66 51 21 17 16 16 19 25 43 44
91 86 95 94 57 58 57 53 60 44 43 32 27 29 27 28 31 30 47 36 34 39 41 38 35 43 57 41 32 32 27 23 31 67 54 62 36 23 22 22 21 18 18 33 43
96 70 71 95 91 71 50 48 54 55 38 31 30 30 30 24 24 27 48 46 38 47 32 39 41 30 34 36 29 26 29 29 22 35 45 38 34 27 20 22 20 26 21 19 24
95 63 88 79 70 79 55 55 50 43 38 34 36 29 27 28 34 30 40 46 45 43 37 38 61 43 42 39 42 38 35 32 31 25 22 24 26 18 22 21 22 23 22 24 24
77 72 62 78 75 74 54 54 44 39 35 24 33 33 33 37 38 44 46 52 45 52 50 52 68 69 58 49 45 53 37 33 32 29 26 29 24 22 32 29 26 25 26 29 24
Wind_Speed
17 18 19 19 16 18 19 19 21 21 20 19 20 22 23 25 27 14 9 5 4 2 7 4 6 9 14 7 7 1 3 5 6 5 2 7 2 5 7 11 7 8 4 17 24
17 18 17 18 18 17 19 20 21 20 19 18 19 21 23 24 26 14 8 8 10 7 6 7 7 8 3 5 4 5 2 4 3 5 4 3 5 4 3 12 6 7 11 29 21
16 17 16 18 19 17 19 20 19 19 18 17 19 20 22 19 7 5 8 3 10 13 11 11 15 7 7 6 8 6 7 5 5 4 6 5 8 3 3 3 15 14 14 7 18
16 16 16 19 19 18 19 19 19 18 16 17 18 21 18 4 2 6 4 6 10 10 9 7 6 4 6 7 8 5 10 10 6 7 4 7 3 9 4 4 15 19 15 9 11
16 16 16 19 20 20 18 18 18 18 16 15 17 19 7 3 8 5 2 10 10 9 10 10 7 6 7 5 7 8 7 6 9 12 8 8 11 9 6 7 12 11 8 12 14
17 16 16 18 20 20 20 19 18 16 14 13 15 14 2 5 3 3 6 13 10 10 12 15 7 5 8 6 4 7 8 4 5 11 4 11 7 6 1 7 6 8 7 14 15
17 16 17 18 20 20 22 19 19 14 13 11 12 7 5 15 6 1 3 8 11 13 5 21 16 7 7 9 14 4 3 1 4 5 2 6 4 5 8 9 8 11 14 14 15
18 17 17 18 19 21 21 18 16 14 11 11 11 3 7 10 6 13 15 11 12 17 17 18 11 4 2 7 10 4 4 2 5 5 6 7 6 9 11 13 9 10 8 14 8
17 17 17 18 19 21 20 18 15 11 10 6 5 5 9 12 7 16 15 16 21 15 19 19 5 1 6 4 5 3 2 5 2 14 3 4 7 12 11 12 10 10 9 10 8
17 17 17 17 18 20 19 15 12 10 4 1 9 6 9 5 14 16 18 16 4 4 2 3 1 2 2 2 2 5 8 3 7 6 4 6 6 12 8 11 7 4 6 9 9
17 16 16 15 16 17 14 8 2 1 3 9 5 6 2 10 13 5 15 12 4 4 3 4 2 5 9 2 6 4 2 7 8 10 6 8 10 11 6 8 11 8 6 8 10
17 16 15 13 14 12 7 5 4 5 8 17 20 17 26 17 4 4 15 7 6 6 3 0 4 7 1 9 7 9 7 10 10 6 5 2 7 12 11 7 15 14 19 20 7
17 16 14 11 12 11 12 19 13 15 3 9 10 8 8 11 6 10 7 8 6 6 1 3 4 5 4 13 6 4 6 3 5 3 3 5 5 3 3 8 11 20 25 19 19
17 17 14 10 6 7 8 16 1 5 3 6 10 6 8 10 8 15 15 10 5 6 5 5 5 6 8 11 8 3 4 6 3 5 2 5 1 5 5 9 6 20 20 15 12
18 19 17 14 6 4 7 12 11 5 3 6 10 8 8 8 2 7 11 3 3 2 4 6 2 6 10 13 6 6 7 2 2 4 7 4 4 5 1 12 13 6 8 10 15
20 21 17 12 13 20 13 12 5 1 6 5 9 10 9 8 8 7 7 2 2 5 2 7 6 3 4 6 6 2 2 3 3 3 2 7 6 4 10 18 9 3 7 8 13
24 25 25 15 5 12 7 4 2 4 6 6 13 10 11 7 8 5 5 4 5 4 3 4 5 5 5 3 3 1 3 3 4 5 3 13 4 10 12 15 13 12 8 4 10
23 27 27 25 20 9 5 2 7 10 11 2 9 12 10 8 10 9 6 8 9 6 4 4 5 6 3 5 6 3 6 5 5 1 5 4 4 6 15 19 14 12 7 5 8
19 28 14 29 23 9 3 9 8 7 13 4 8 9 9 11 7 8 9 9 11 9 7 4 1 7 14 10 4 3 1 5 6 4 2 4 9 6 9 7 6 8 6 7 8
21 13 13 23 20 8 5 11 6 14 10 8 8 8 8 10 4 9 9 9 9 14 8 6 3 1 13 14 8 4 3 5 3 5 4 3 4 1 4 7 11 7 8 9 9
13 5 14 25 20 4 11 9 13 20 15 7 11 8 9 7 17 7 7 10 13 6 9 6 5 5 6 9 9 1 3 3 3 5 4 1 5 3 5 3 11 13 14 14 13
7 8 26 38 7 5 12 10 12 18 14 14 2 5 7 6 8 9 9 4 9 8 10 7 5 3 11 14 7 6 4 6 5 4 2 4 5 3 6 3 5 8 13 14 15
3 5 30 31 12 11 7 14 16 19 19 7 3 3 2 4 4 7 5 4 4 6 5 2 1 2 6 5 6 4 5 4 4 3 5 5 5 2 5 4 2 4 6 9 12
4 8 6 8 6 18 17 17 20 13 20 17 6 7 5 8 16 9 2 3 5 3 1 6 2 6 6 7 3 3 5 6 5 4 3 5 5 11 6 8 7 4 3 8 9
4 8 8 11 16 10 19 15 21 14 14 11 7 8 7 4 2 5 5 3 3 3 3 5 4 1 3 5 5 1 5 7 5 6 7 7 6 10 1 3 2 6 3 2 7
3 9 5 4 16 16 19 20 25 20 16 14 6 10 7 5 7 5 8 5 6 2 4 1 2 2 2 5 7 4 8 7 6 3 2 5 6 3 7 7 8 7 8 6 5
11 6 8 8 18 17 22 22 21 20 12 14 9 5 7 5 6 6 5 8 6 7 5 5 5 3 3 4 6 6 7 5 6 5 3 5 7 5 8 8 7 7 7 7 5
Wind_Direction
310 312 318 322 317 320 320 323 323 325 323 323 321 315 318 318 315 309 249 232 184 107 270 271 244 254 266 259 267 309 248 290 325 34 258 275 118 279 99 95 53 9 22 124 130
308 310 313 318 315 319 319 322 322 326 324 322 319 316 319 324 313 248 306 258 226 236 220 226 202 216 274 273 271 169 97 239 220 215 164 165 329 40 118 88 46 63 38 122 126
306 311 311 314 315 315 317 320 322 324 322 324 319 317 321 330 280 241 331 237 215 221 230 250 280 183 211 242 255 257 231 167 227 181 110 77 350 130 56 73 144 141 155 180 168
301 311 308 314 313 311 317 320 320 321 325 323 320 320 326 334 138 338 353 126 178 192 216 259 269 230 242 247 253 229 235 231 217 167 86 113 233 311 223 213 179 156 168 187 143
298 305 304 311 310 313 315 317 317 318 320 323 317 325 350 254 252 279 138 143 172 184 207 230 268 247 240 255 270 194 240 257 202 138 161 141 196 196 143 163 134 140 163 168 138
294 297 301 307 309 310 314 315 311 313 316 315 316 331 297 270 190 141 138 151 160 179 241 243 248 268 250 263 294 209 229 232 231 107 129 141 172 103 237 177 143 137 193 144 142
288 292 297 303 306 309 313 315 311 310 313 311 316 334 267 246 142 172 152 180 177 204 259 277 315 22 334 330 331 236 87 91 77 117 26 107 48 134 169 179 183 195 201 148 158
284 288 292 299 305 308 314 315 308 306 308 314 314 321 252 263 321 274 239 210 209 220 232 270 321 5 21 314 341 341 40 47 303 146 231 113 168 159 156 152 153 144 139 145 143
279 283 288 296 302 307 313 309 301 305 309 317 312 207 263 304 225 243 233 216 207 210 232 257 44 264 320 328 338 298 148 112 70 266 102 127 155 153 161 153 154 147 136 132 129
269 277 282 292 299 308 312 312 299 300 345 283 265 297 265 223 224 236 228 229 218 126 35 38 36 258 315 91 254 286 139 177 218 247 186 167 154 162 150 120 100 77 13 148 155
262 267 275 287 296 307 319 324 280 211 229 208 205 251 42 306 212 183 166 184 171 134 194 210 83 226 267 227 279 305 226 205 234 245 165 166 154 146 147 116 147 86 26 295 168
257 257 267 280 291 305 294 260 224 4 294 231 246 248 271 288 290 253 233 165 157 198 183 175 248 302 61 296 313 311 299 281 254 183 113 77 182 152 162 175 172 146 159 230 159
247 246 257 269 290 274 239 242 254 1 294 279 208 223 231 232 239 260 184 224 202 213 161 150 228 339 240 253 259 287 263 336 94 85 76 99 42 15 252 193 184 179 188 202 161
240 234 238 247 274 266 243 302 26 196 338 254 179 237 225 235 230 239 237 185 213 199 129 215 240 275 274 269 273 180 241 347 44 66 244 85 171 333 324 327 331 173 189 180 173
232 225 226 225 306 248 305 16 149 129 302 220 173 208 181 204 163 248 227 50 174 115 102 267 157 244 257 257 287 218 207 238 140 182 90 292 82 285 147 237 270 272 190 187 170
224 219 213 222 253 245 284 350 125 107 250 202 157 175 192 202 232 257 157 145 244 252 196 224 182 128 285 201 231 217 27 295 323 157 106 228 164 234 189 218 227 176 216 173 167
221 213 207 206 202 19 272 291 105 177 282 182 158 159 196 188 226 215 139 190 187 132 157 275 229 174 236 250 145 83 46 7 1 13 229 38 40 260 225 218 217 216 193 173 154
222 210 212 215 224 292 312 190 212 197 246 92 167 176 190 204 205 235 174 196 229 187 157 160 340 7 300 210 184 195 152 165 169 123 287 290 226 238 215 198 196 210 205 175 154
213 199 199 226 220 253 231 212 194 221 213 253 164 168 202 218 179 194 201 194 213 195 168 117 294 335 328 344 135 300 61 175 107 8 67 254 249 338 85 158 198 202 160 199 152
180 178 209 216 205 198 225 225 225 243 299 230 219 182 190 205 263 177 193 208 221 204 128 192 138 112 312 317 298 154 268 26 22 134 240 283 299 175 84 170 197 191 207 179 151
181 179 204 188 166 206 218 225 237 259 267 262 216 195 207 191 196 214 205 225 201 137 113 146 110 306 126 242 238 297 274 213 141 131 169 168 276 184 89 93 170 201 188 176 170
206 194 165 153 174 202 220 214 241 255 260 265 262 222 202 197 208 201 205 121 322 160 131 203 148 144 218 229 204 195 214 170 125 256 187 149 266 207 142 141 141 175 187 184 178
206 150 166 167 196 211 200 226 239 251 260 266 211 226 273 173 9 193 117 191 132 42 135 168 177 61 338 332 347 235 227 228 130 92 187 133 259 235 171 166 92 111 127 185 180
194 166 169 218 228 193 194 207 226 249 257 265 213 263 290 166 174 227 121 37 60 107 165 93 149 151 188 214 211 269 232 255 154 113 204 204 267 295 259 191 196 194 172 147 185
210 202 168 191 207 208 188 200 209 230 223 235 220 217 215 180 200 189 108 97 139 217 134 117 165 293 290 324 321 297 282 277 247 203 152 236 226 259 354 159 97 203 216 179 102
186 187 160 175 183 205 190 211 203 223 236 225 204 216 215 172 175 205 133 153 177 180 139 121 198 96 289 348 35 351 329 327 318 312 265 234 242 190 169 102 68 58 60 83 55
231 281 166 168 179 192 203 195 203 217 239 199 211 173 192 178 112 86 84 90 118 134 164 128 122 94 239 356 17 346 240 242 255 281 254 289 262 44 58 66 51 36 50 42 10